Regional Weather Roundup
Issued by NWS

Home | Current Version | Previous Version | Graphics & Text | Print | Product List | Glossary On
Versions: 1 2 3 4 5 6 7 8 9 10 11 12 13 14 15 16 17 18 19 20 21 22 23 24 25 26 27 28 29 30 31 32 33 34 35 36 37 38 39 40 41 42 43 44 45 46 47 48 49 50
000
ASUS43 KLMK 142310
RWRKY
KENTUCKY REGIONAL WEATHER ROUNDUP
NATIONAL WEATHER SERVICE LOUISVILLE KY
700 PM EDT SUN SEP 14 2014

NOTE "FAIR" INDICATES FEW OR NO CLOUDS BELOW 12,000 FEET
WITH NO SIGNIFICANT WEATHER AND/OR OBSTRUCTIONS TO VISIBILITY.

KYZ001>023-026-027-061>063-070>075-150000-
WESTERN AND SOUTH CENTRAL KENTUCKY

CITY           SKY/WX    TMP DP  RH WIND       PRES   REMARKS
PADUCAH        SUNNY     75  50  41 CALM      30.18F
HENDERSON      SUNNY     72  48  43 NW3       30.19S
OWENSBORO      SUNNY     71  49  45 N5        30.19F
HOPKINSVILLE   SUNNY     73  54  52 N5        30.17F
BOWLING GREEN  SUNNY     74  49  41 CALM      30.18F
GLASGOW        CLEAR     73  49  43 CALM      30.18S
$$

KYZ024-025-028>034-038-045-046-053-150000-
NORTH CENTRAL KENTUCKY

CITY           SKY/WX    TMP DP  RH WIND       PRES   REMARKS
LOUISVILLE/SDF CLEAR     73  48  41 NE5       30.18F
LOUISVILLE/LOU CLEAR     72  48  42 CALM      30.19F
FORT KNOX      CLEAR     68  53  57 N5        30.18F
$$

KYZ035>037-039>044-047>052-055>060-089>105-150000-
NORTHEAST KENTUCKY

CITY           SKY/WX    TMP DP  RH WIND       PRES   REMARKS
LEXINGTON      CLEAR     70  50  49 N5        30.20F
COVINGTON      CLEAR     68  46  45 W5        30.20F
FRANKFORT      CLEAR     69  47  45 E3        30.19F
$$

KYZ054-064>069-076>088-106>120-150000-
SOUTHEAST KENTUCKY

CITY           SKY/WX    TMP DP  RH WIND       PRES   REMARKS
JACKSON        CLEAR     68  54  60 CALM      30.21S
LONDON         CLEAR     73  56  54 NE3       30.19F
SOMERSET       NOT AVBL
MIDDLESBORO    PTCLDY    70  63  79 NE5       30.18S
MONTICELLO     CLEAR     74  58  57 CALM      30.20S
$$



USA.gov is the U.S. government's official web portal to all federal, state and local government web resources and services.